[[{"header":{"parameterUnit":"m.s-1","parameterCategory":1,"la1":30.2991,"la2":30.254,"lo1":-89.0895,"lo2":-89.0444,"dy":0.0017,"dx":0.0017,"nx":28,"ny":28,"refTime":"2023-09-08T09:00:00:Z","depth":0,"parameterNumber":2,"parameterNumberName":"U-component_of_WINDS"},"data":[0,0,0,0,0,0,0,0,0,0,0,0,0,0,0,0,0,0,0,0,0,0,0,0,0,0,0,0,0,0,0,0,0,0,0,0,0,0,0,0,0,0,0,0,0,0,0,0,0,0,0,0,0,0,0,0,0,0,-2.712,-2.7119,0,-2.7051,-2.705,-2.7049,-2.6878,-2.6875,-2.6871,-2.6868,-2.6801,-2.6803,-2.6804,0,0,0,0,0,0,0,0,0,0,0,0,0,-2.7109,-2.711,-2.712,-2.7119,-2.7118,-2.7051,-2.705,-2.7049,-2.6879,-2.6875,-2.687,-2.6866,-2.6801,-2.6803,-2.6805,0,0,0,0,0,0,0,0,0,0,0,0,0,-2.7084,-2.711,-2.712,-2.7025,-2.7016,-2.7051,-2.705,-2.7049,-2.688,-2.6875,-2.6869,-2.6864,-2.68,-2.6803,-2.6805,-2.6928,0,0,-2.6812,-2.6813,0,0,0,0,0,0,0,0,-2.7086,-2.7085,-2.704,-2.7032,-2.7022,-2.6968,-2.7021,-2.7008,-2.6881,-2.6932,-2.6868,-2.6862,-2.6861,-2.6858,-2.6857,-2.6925,-2.6922,-2.6812,-2.6814,-2.6815,-2.6815,0,0,0,0,0,0,0,-2.7088,-2.7087,-2.7093,-2.704,-2.7028,-2.6987,-2.6978,-2.7018,-2.6928,-2.6927,-2.6914,-2.6908,-2.6855,-2.6856,-2.6855,-2.6921,-2.6812,-2.6814,-2.6816,-2.6817,-2.7084,-2.709,0,0,0,0,0,0,-2.7103,-2.709,-2.7095,-2.7091,-2.7041,-2.6992,-2.6981,-2.6991,-2.6927,-2.6912,-2.6913,-2.6901,-2.6854,-2.6852,-2.6852,-2.699,-2.6815,-2.6817,-2.6818,-2.7079,-2.7085,-2.7092,0,0,0,0,0,0,-2.7103,-2.7105,-2.7098,-2.7087,-2.7083,-2.6998,-2.701,-2.6992,-2.6992,-2.6916,-2.69,-2.693,-2.685,-2.6848,-2.6909,-2.6985,-2.6818,-2.682,-2.7072,-2.7081,-2.7089,-2.7268,0,0,0,0,0,0,-2.7104,-2.7106,-2.7151,-2.7089,-2.7084,-2.7156,-2.7014,-2.6995,-2.6996,-2.6979,-2.6927,-2.6914,-2.6845,-2.6907,-2.6912,-2.6985,-2.6822,-2.7065,-2.7076,-2.7086,-2.7255,-2.7282,-2.7305,0,0,0,0,0,-2.7104,-2.7206,-2.7154,-2.7156,-2.7138,-2.7161,-2.7158,-2.7076,-2.7003,-2.7047,-2.6999,-2.6915,-2.6977,-2.6915,-2.6919,-2.6994,-2.706,-2.7073,-2.7085,-2.7244,-2.7277,-2.7304,0,0,0,0,0,0,-2.728,-2.7196,-2.7138,-2.7222,-2.72,-2.7132,-2.7186,-2.7113,-2.7112,-2.7097,-2.6997,-2.6987,-2.7062,-2.7034,-2.6967,-2.7109,-2.7004,-2.7019,-2.7124,-2.7154,-2.7179,-2.7183,-2.6824,0,0,0,0,0,-2.7329,-2.7353,-2.7278,-2.736,-2.7352,-2.7272,-2.7278,-2.7217,-2.719,-2.7181,-2.7136,-2.7115,-2.7129,-2.714,-2.7149,-2.7251,-2.7237,-2.7305,-2.733,-2.7351,-2.7364,-2.7415,-2.7444,-2.7134,-2.7133,-2.7133,0,0,-2.743,-2.7387,-2.7408,-2.7395,-2.737,-2.7398,-2.7265,-2.7301,-2.732,-2.7186,-2.724,-2.7208,-2.7177,-2.7259,-2.7293,-2.7239,-2.7447,-2.7367,-2.7384,-2.7386,-2.7431,-2.746,-2.7486,-2.7142,-2.7141,-2.7139,0,0,-2.7627,-2.7598,-2.7661,-2.7639,-2.7603,-2.7549,-2.7565,-2.7508,-2.748,-2.7533,-2.7433,-2.7456,-2.7483,-2.7465,-2.7459,-2.7651,-2.7574,-2.7657,-2.7786,-2.7837,-2.7861,-2.7882,-2.7949,-2.7974,-2.7671,-2.7671,-2.7671,0,-2.7757,-2.7794,-2.7704,-2.7746,-2.7743,-2.7621,-2.7686,-2.7669,-2.7639,-2.7641,-2.758,-2.761,-2.7581,-2.7656,-2.7703,-2.7703,-2.7718,-2.7661,-2.7865,-2.7885,-2.7903,-2.7966,-2.7992,-2.7681,-2.768,-2.7679,-2.7678,0,-2.7955,-2.7983,-2.8039,-2.8011,-2.8015,-2.8068,-2.7987,-2.8002,-2.7941,-2.7894,-2.7949,-2.791,-2.7908,-2.7922,-2.7864,-2.799,-2.7956,-2.7882,-2.7774,-2.7945,-2.8002,-2.8025,-2.7696,-2.7692,-2.7689,-2.7687,0,0,-2.8261,-2.8182,-2.8204,-2.8189,-2.8141,-2.8161,-2.8209,-2.8206,-2.822,-2.8204,-2.8242,-2.8267,-2.8198,-2.8192,-2.813,-2.8176,-2.8328,-2.8095,-2.8092,-2.8138,-2.8463,-2.8518,-2.8547,-2.8277,-2.8282,-2.8285,-2.8465,0,-2.8445,-2.852,-2.8441,-2.8533,-2.8557,-2.8443,-2.8485,-2.8461,-2.8419,-2.8434,-2.8387,-2.8406,-2.8314,-2.8309,-2.8349,-2.8301,-2.8392,-2.8287,-2.8311,-2.8313,-2.832,-2.8577,-2.8635,-2.8807,-2.8487,-2.8491,-2.8493,0,-2.8669,-2.8661,-2.8756,-2.8701,-2.8708,-2.8747,-2.8737,-2.8753,-2.8724,-2.869,-2.8684,-2.8609,-2.8653,-2.855,-2.861,-2.8541,-2.8546,-2.8525,-2.8529,-2.8527,-2.8412,-2.858,-2.886,-2.8885,-2.8528,-2.8525,-2.8523,0,-2.888,-2.8894,-2.8951,-2.8943,-2.8881,-2.891,-2.8886,-2.8851,-2.8854,-2.8847,-2.8848,-2.8847,-2.8846,-2.8848,-2.8775,-2.8707,-2.8844,-2.8735,-2.8817,-2.8819,-2.8849,-2.8848,-2.9132,-2.8857,-2.8857,-2.8856,-2.8856,0,-2.9093,-2.9155,-2.9045,-2.9081,-2.9147,-2.9056,-2.9124,-2.9089,-2.9059,-2.9086,-2.8989,-2.9017,-2.892,-2.8938,-2.8883,-2.894,-2.8941,-2.8915,-2.8899,-2.8922,-2.8925,-2.8923,-2.8908,-2.8863,-2.8861,-2.886,-2.8859,0,-2.9338,-2.9268,-2.9323,-2.9259,-2.9245,-2.9296,-2.9242,-2.9273,-2.9224,-2.926,-2.9263,-2.9188,-2.9204,-2.9132,-2.9137,-2.9099,-2.9185,-2.915,-2.9194,-2.9183,-2.9268,-2.926,-2.9558,-2.9592,-2.9299,-2.9302,-2.9304,0,-2.9477,-2.9522,-2.9463,-2.9473,-2.9453,-2.9472,-2.9474,-2.9387,-2.9394,-2.9364,-2.9399,-2.9407,-2.9408,-2.944,-2.9386,-2.9389,-2.9352,-2.9457,-2.9352,-2.9374,-2.9351,-2.9348,-2.9352,-2.9478,-2.9481,-2.9484,-2.9487,0,-2.9731,-2.9694,-2.97,-2.9694,-2.9699,-2.9691,-2.9676,-2.9691,-2.9597,-2.961,-2.9624,-2.9626,-2.9629,-2.9639,-2.9631,-2.9607,-2.9532,-2.9521,-2.9539,-2.9562,-2.9585,-2.9572,-2.9251,-2.9514,-2.9511,-2.9509,-2.9507,-2.9506,-2.9926,-2.9959,-2.9923,-2.9933,-2.9913,-2.9901,-2.9926,-2.9881,-2.9891,-2.9886,-2.9835,-2.9859,-2.9829,-2.981,-2.9794,-2.9812,-2.9763,-2.9791,-2.9797,-2.9805,-2.9819,-2.9585,-2.9811,-2.981,-2.9809,-2.9809,-2.9808,0,-3.0172,-3.0143,-3.0153,-3.0135,-3.0143,-3.0071,-3.0052,-3.0063,-3.0085,-3.0063,-3.0066,-3.0083,-3.0092,-3.0039,-3.0041,-3.0066,-3.0031,-3.0069,-3.0065,-3.006,-2.9864,-2.9846,-3.0097,-3.0097,-3.0097,-3.0097,-3.0096,-3.0096,-3.0301,-3.0354,-3.0313,-3.0355,-3.0325,-3.0347,-3.0342,-3.0331,-3.0312,-3.0335,-3.0341,-3.0306,-3.0272,-3.027,-3.0275,-3.026,-3.0264,-3.0313,-3.0286,-3.0103,-3.0075,-3.0048,-3.0031,-3.0316,-3.0316,-3.048,-3.0482,-3.0483]},{"header":{"parameterUnit":"m.s-1","parameterCategory":1,"la1":30.2991,"la2":30.254,"lo1":-89.0895,"lo2":-89.0444,"dy":0.0017,"dx":0.0017,"nx":28,"ny":28,"refTime":"2023-09-08T09:00:00:Z","depth":0,"parameterNumber":3,"parameterNumberName":"V-component_of_WINDS"},"data":[0,0,0,0,0,0,0,0,0,0,0,0,0,0,0,0,0,0,0,0,0,0,0,0,0,0,0,0,0,0,0,0,0,0,0,0,0,0,0,0,0,0,0,0,0,0,0,0,0,0,0,0,0,0,0,0,0,0,-3.0944,-3.0945,0,-3.0971,-3.0972,-3.0972,-3.094,-3.0939,-3.0938,-3.0937,-3.0963,-3.0965,-3.0967,0,0,0,0,0,0,0,0,0,0,0,0,0,-3.0863,-3.0865,-3.0944,-3.0945,-3.0945,-3.0971,-3.0972,-3.0972,-3.094,-3.0939,-3.0938,-3.0936,-3.0963,-3.0965,-3.0967,0,0,0,0,0,0,0,0,0,0,0,0,0,-3.0895,-3.0865,-3.0944,-3.0932,-3.0932,-3.0971,-3.0972,-3.0972,-3.0941,-3.0939,-3.0937,-3.0936,-3.0962,-3.0965,-3.0967,-3.102,0,0,-3.0976,-3.0977,0,0,0,0,0,0,0,0,-3.0893,-3.0898,-3.0934,-3.0933,-3.0933,-3.0951,-3.0953,-3.0988,-3.0941,-3.0937,-3.0937,-3.0935,-3.0961,-3.0963,-3.0972,-3.1021,-3.1022,-3.0976,-3.0978,-3.0979,-3.0979,0,0,0,0,0,0,0,-3.0891,-3.0897,-3.0955,-3.0934,-3.0934,-3.0925,-3.0928,-3.0959,-3.0958,-3.0938,-3.0935,-3.0939,-3.096,-3.097,-3.0973,-3.1022,-3.0976,-3.0978,-3.098,-3.0981,-3.1113,-3.1115,0,0,0,0,0,0,-3.0891,-3.0895,-3.0954,-3.0956,-3.0908,-3.0928,-3.0931,-3.0947,-3.0958,-3.0958,-3.094,-3.0937,-3.0966,-3.0969,-3.0973,-3.1033,-3.0979,-3.0981,-3.0983,-3.1111,-3.1113,-3.1115,0,0,0,0,0,0,-3.0889,-3.0896,-3.0953,-3.0925,-3.0932,-3.0931,-3.0949,-3.0948,-3.0958,-3.096,-3.096,-3.0951,-3.0965,-3.097,-3.1008,-3.1034,-3.0982,-3.0985,-3.1109,-3.1112,-3.1114,-3.1155,0,0,0,0,0,0,-3.0887,-3.0896,-3.0916,-3.0926,-3.0933,-3.0988,-3.0951,-3.095,-3.0963,-3.0959,-3.097,-3.097,-3.0964,-3.1004,-3.1011,-3.1037,-3.0987,-3.1106,-3.111,-3.1113,-3.1151,-3.1159,-3.1166,0,0,0,0,0,-3.0884,-3.0927,-3.0917,-3.0925,-3.0959,-3.099,-3.0994,-3.0986,-3.0965,-3.0985,-3.0986,-3.097,-3.103,-3.1008,-3.1015,-3.1043,-3.1105,-3.1109,-3.1113,-3.1148,-3.1158,-3.1165,0,0,0,0,0,0,-3.0921,-3.0928,-3.0918,-3.0965,-3.0977,-3.0984,-3.1009,-3.0996,-3.1014,-3.101,-3.0999,-3.1002,-3.1042,-3.1046,-3.1022,-3.1093,-3.1064,-3.107,-3.1088,-3.1097,-3.1104,-3.1101,-3.0989,0,0,0,0,0,-3.0934,-3.0959,-3.0964,-3.1006,-3.1012,-3.101,-3.1023,-3.1016,-3.1027,-3.1032,-3.1036,-3.1048,-3.1069,-3.1084,-3.1104,-3.1152,-3.1153,-3.1175,-3.1182,-3.1187,-3.1192,-3.1216,-3.1225,-3.1129,-3.1129,-3.1129,0,0,-3.0963,-3.097,-3.0986,-3.1013,-3.1021,-3.1046,-3.1014,-3.1043,-3.106,-3.1036,-3.1072,-3.1076,-3.1088,-3.1131,-3.115,-3.1136,-3.1219,-3.1193,-3.1197,-3.1199,-3.1221,-3.123,-3.1238,-3.1132,-3.1132,-3.1131,0,0,-3.1027,-3.1036,-3.107,-3.1079,-3.1092,-3.109,-3.1098,-3.1107,-3.1108,-3.1144,-3.1126,-3.1147,-3.1185,-3.1193,-3.1203,-3.1269,-3.1253,-3.1276,-3.1312,-3.1335,-3.1343,-3.1349,-3.1371,-3.1379,-3.1281,-3.1281,-3.1281,0,-3.106,-3.1098,-3.1089,-3.1118,-3.113,-3.1109,-3.1143,-3.1152,-3.1171,-3.1178,-3.1162,-3.1208,-3.1215,-3.1259,-3.1274,-3.1284,-3.1291,-3.1274,-3.1342,-3.1349,-3.1355,-3.1375,-3.1384,-3.1283,-3.1283,-3.1283,-3.1283,0,-3.1137,-3.1163,-3.119,-3.1208,-3.1222,-3.1254,-3.1249,-3.1264,-3.1256,-3.1255,-3.1291,-3.1298,-3.1318,-3.1329,-3.1321,-3.1371,-3.1361,-3.1344,-3.1315,-3.1367,-3.1385,-3.1393,-3.1287,-3.1286,-3.1285,-3.1285,0,0,-3.1225,-3.1237,-3.1247,-3.1254,-3.1266,-3.1286,-3.1315,-3.1335,-3.1348,-3.1361,-3.1385,-3.1417,-3.14,-3.1411,-3.1404,-3.1425,-3.1474,-3.1405,-3.1405,-3.1415,-3.1527,-3.1538,-3.1548,-3.1464,-3.1466,-3.1467,-3.1525,0,-3.1288,-3.1339,-3.1332,-3.1381,-3.1404,-3.1384,-3.141,-3.1419,-3.1419,-3.1438,-3.1438,-3.146,-3.1438,-3.1443,-3.1463,-3.1464,-3.1496,-3.146,-3.1484,-3.1485,-3.148,-3.1558,-3.157,-3.1625,-3.1533,-3.1534,-3.1535,0,-3.1368,-3.1383,-3.1435,-3.1441,-3.1451,-3.1474,-3.149,-3.1509,-3.1519,-3.1517,-3.1529,-3.1517,-3.1546,-3.1517,-3.1555,-3.1531,-3.154,-3.1542,-3.1544,-3.1544,-3.1512,-3.1559,-3.1643,-3.165,-3.1547,-3.1546,-3.1545,0,-3.1424,-3.1458,-3.1493,-3.15,-3.1509,-3.1525,-3.153,-3.1538,-3.155,-3.1564,-3.1571,-3.1589,-3.1598,-3.1612,-3.1605,-3.1585,-3.1644,-3.1615,-3.1642,-3.1642,-3.1654,-3.1653,-3.1738,-3.1663,-3.1663,-3.1663,-3.1663,0,-3.1494,-3.1525,-3.1518,-3.1539,-3.1573,-3.1564,-3.1598,-3.16,-3.1607,-3.1627,-3.1612,-3.1631,-3.1622,-3.1641,-3.1636,-3.1667,-3.1671,-3.167,-3.1668,-3.167,-3.167,-3.1675,-3.167,-3.1665,-3.1665,-3.1664,-3.1664,0,-3.1562,-3.1558,-3.1594,-3.16,-3.1602,-3.1626,-3.1631,-3.165,-3.1648,-3.1674,-3.168,-3.1677,-3.1698,-3.1693,-3.1716,-3.1712,-3.1751,-3.1745,-3.1747,-3.1745,-3.1771,-3.1768,-3.1862,-3.1873,-3.1793,-3.1793,-3.1794,0,-3.1605,-3.1629,-3.1637,-3.1649,-3.1655,-3.1675,-3.1687,-3.1678,-3.1691,-3.1703,-3.172,-3.174,-3.1754,-3.1788,-3.1788,-3.1805,-3.1798,-3.183,-3.18,-3.1801,-3.1796,-3.1794,-3.1795,-3.1835,-3.1836,-3.1837,-3.1837,0,-3.1683,-3.1679,-3.1697,-3.1713,-3.1727,-3.174,-3.1751,-3.1762,-3.1754,-3.1769,-3.1789,-3.1801,-3.1823,-3.1842,-3.1857,-3.1861,-3.1847,-3.1847,-3.1853,-3.1855,-3.1855,-3.1853,-3.1761,-3.1844,-3.1844,-3.1843,-3.1843,-3.1842,-3.1738,-3.1758,-3.1766,-3.1785,-3.1792,-3.1802,-3.182,-3.182,-3.1838,-3.1855,-3.1849,-3.1872,-3.188,-3.1899,-3.1905,-3.1922,-3.191,-3.192,-3.1923,-3.1925,-3.1927,-3.1853,-3.1925,-3.1925,-3.1925,-3.1925,-3.1925,0,-3.1813,-3.1817,-3.1835,-3.185,-3.1865,-3.1851,-3.1862,-3.1875,-3.1896,-3.1904,-3.1919,-3.1942,-3.1959,-3.1961,-3.1977,-3.199,-3.1984,-3.1995,-3.1993,-3.1993,-3.1938,-3.193,-3.1999,-3.1999,-3.1999,-3.1999,-3.1999,-3.1999,-3.1853,-3.1884,-3.1882,-3.1916,-3.1919,-3.1942,-3.1949,-3.1958,-3.1964,-3.199,-3.2005,-3.2005,-3.2011,-3.2027,-3.2042,-3.2042,-3.2048,-3.206,-3.2057,-3.2005,-3.1998,-3.199,-3.1982,-3.2062,-3.2062,-3.2111,-3.2111,-3.2112]}]]